Location: Unspecified
(33.9239°N, 118.0544°W)
Time: 14:42:14
(UTC-07:00)

Cosmos 2058 - Visible Passes

Search period start: 22 October 2014 00:00
Search period end: 01 November 2014 00:00
Orbit: 571 x 592 km, 82.5° (Epoch: 22 October)

Date Brightness Start Highest point End Pass type
(mag) Time Alt. Az. Time Alt. Az. Time Alt. Az.
22 Oct 4.3 05:10:55 10° SSE 05:14:47 39° E 05:18:42 10° NNE visible
23 Oct 3.4 05:16:14 10° S 05:20:19 60° E 05:24:27 10° NNE visible
24 Oct 2.8 05:21:43 10° S 05:25:52 90° E 05:30:05 10° N visible
25 Oct 2.8 05:30:09 40° SW 05:31:26 60° W 05:35:36 10° N visible
26 Oct 6.2 04:01:48 10° ENE 04:01:48 10° ENE 04:01:51 10° ENE visible
26 Oct 3.8 05:38:18 31° NW 05:38:18 31° NW 05:41:00 10° N visible
27 Oct 5.0 05:45:30 14° NNW 05:45:30 14° NNW 05:46:16 10° NNW visible
